�N����,����,�~����,�C��,���x,�C��,����,���ϕ���,�ő�u�ԕ���,�ő厞����,���˗�,�I�_���x,�n�����x,�ő啗���N��,DTYPE
"17/08/19","00:10",0.0,24.2,91.9,1004.8,305.8,0.5,1.4,341.1,0.00,22.8,26.8,"00:02:16",1
"17/08/19","00:20",0.0,24.3,91.9,1005.0,337.4,1.0,2.0,330.9,0.00,22.9,26.8,"00:10:24",1
"17/08/19","00:30",0.0,24.2,91.9,1004.8,338.8,1.2,2.7,356.0,0.00,22.8,26.7,"00:26:24",1
"17/08/19","00:40",0.0,24.2,91.8,1004.5,343.9,0.7,1.8,313.5,0.00,22.8,26.7,"00:31:52",1
"17/08/19","00:50",0.0,24.1,91.7,1004.5,316.0,0.6,1.0,356.3,0.00,22.7,26.7,"00:43:20",1
"17/08/19","01:00",0.0,24.0,91.7,1005.0,325.2,0.7,1.9,324.8,0.00,22.6,26.7,"00:50:02",1
"17/08/19","01:10",0.0,24.0,91.6,1004.8,322.8,1.2,2.6,351.7,0.00,22.6,26.7,"01:03:28",1
"17/08/19","01:20",0.0,24.1,91.3,1004.8,286.8,1.1,2.0,327.5,0.00,22.6,26.5,"01:16:08",1
"17/08/19","01:30",0.0,24.0,91.2,1004.5,308.2,1.2,1.9,329.1,0.00,22.5,26.3,"01:20:16",1
"17/08/19","01:40",0.0,24.0,91.4,1004.3,291.1,1.1,1.8,319.5,0.00,22.6,26.6,"01:36:48",1
"17/08/19","01:50",0.0,23.9,91.5,1004.5,295.6,1.1,1.9,314.2,0.00,22.5,26.4,"01:46:24",1
"17/08/19","02:00",0.0,23.9,91.7,1004.5,331.8,1.2,1.9,351.2,0.00,22.5,26.3,"01:55:44",1
"17/08/19","02:10",0.0,23.9,91.9,1004.5,334.1,1.2,2.5,333.3,0.00,22.5,26.2,"02:04:48",1
"17/08/19","02:20",0.0,23.9,92.0,1004.5,337.4,1.3,2.2,346.0,0.00,22.6,26.3,"02:14:24",1
"17/08/19","02:30",0.0,23.9,92.1,1004.5,332.8,1.7,2.7,324.3,0.00,22.6,26.3,"02:29:36",1
"17/08/19","02:40",0.0,23.9,92.2,1004.5,326.9,2.0,4.0,325.5,0.00,22.6,26.3,"02:38:40",1
"17/08/19","02:50",0.0,23.8,92.2,1004.5,329.9,1.8,3.2,326.9,0.00,22.5,26.3,"02:43:52",1
"17/08/19","03:00",0.0,23.8,92.2,1004.5,334.1,0.8,2.0,322.8,0.00,22.5,26.3,"02:50:08",1
"17/08/19","03:10",0.0,23.7,92.1,1004.8,333.8,1.7,2.8,330.3,0.00,22.4,26.3,"03:08:40",1
"17/08/19","03:20",0.0,23.5,92.4,1004.8,329.0,1.5,2.5,342.3,0.00,22.2,26.1,"03:10:16",1
"17/08/19","03:30",0.0,23.6,92.6,1004.5,333.6,1.8,3.2,352.4,0.00,22.4,26.2,"03:25:36",1
"17/08/19","03:40",0.0,23.6,92.7,1004.8,334.3,1.8,2.9,314.9,0.00,22.4,26.1,"03:35:52",1
"17/08/19","03:50",0.0,23.6,92.7,1004.8,337.1,1.5,2.6,343.5,0.00,22.4,26.0,"03:49:12",1
"17/08/19","04:00",0.0,23.5,92.9,1004.8,333.7,1.6,2.8,341.0,0.00,22.3,26.0,"03:59:44",1
"17/08/19","04:10",0.0,23.5,93.1,1005.0,335.7,1.8,2.8,335.0,0.00,22.4,26.1,"04:04:24",1
"17/08/19","04:20",0.0,23.6,93.0,1004.8,343.5,1.6,3.3,337.9,0.00,22.4,26.0,"04:18:00",1
"17/08/19","04:30",0.0,23.6,92.9,1004.8,339.0,2.0,3.6,338.8,0.00,22.4,25.9,"04:25:12",1
"17/08/19","04:40",0.0,23.6,92.8,1004.5,340.2,1.8,4.4,344.3,0.00,22.4,25.7,"04:30:56",1
"17/08/19","04:50",0.0,23.6,92.7,1005.0,330.6,2.0,3.3,342.4,0.00,22.4,25.9,"04:41:44",1
"17/08/19","05:00",0.0,23.6,92.7,1005.0,334.0,1.6,3.3,331.7,0.00,22.4,25.9,"04:54:32",1
"17/08/19","05:10",0.0,23.5,92.4,1004.8,340.4,1.1,2.1,344.6,0.00,22.2,26.0,"05:00:16",1
"17/08/19","05:20",0.0,23.4,92.7,1005.5,334.9,1.3,2.2,317.6,0.00,22.2,25.9,"05:15:20",1
"17/08/19","05:30",0.0,23.4,92.8,1005.2,331.7,1.5,2.8,322.8,0.00,22.2,25.9,"05:25:36",1
"17/08/19","05:40",0.0,23.5,92.9,1005.5,332.7,1.8,3.7,323.5,0.00,22.3,25.7,"05:33:12",1
"17/08/19","05:50",0.0,23.6,92.8,1005.5,327.2,1.6,3.7,336.3,0.00,22.4,25.7,"05:45:04",1
"17/08/19","06:00",0.0,23.6,92.6,1005.7,338.2,1.2,2.6,330.9,0.00,22.4,25.7,"05:58:32",1
"17/08/19","06:10",0.0,23.6,92.6,1006.0,333.1,1.6,2.6,324.6,0.00,22.4,25.7,"06:01:04",1
"17/08/19","06:20",0.0,23.8,92.6,1005.5,330.6,2.1,3.7,344.3,0.00,22.6,25.8,"06:16:56",1
"17/08/19","06:30",0.0,24.0,92.1,1006.0,329.7,1.8,4.2,332.9,0.02,22.7,25.5,"06:25:28",1
"17/08/19","06:40",0.0,24.3,91.4,1006.0,338.0,2.0,3.5,349.6,0.03,22.8,25.6,"06:32:16",1
"17/08/19","06:50",0.0,24.8,89.8,1006.2,328.8,1.6,3.1,341.6,0.04,23.1,25.6,"06:40:48",1
"17/08/19","07:00",0.0,25.0,88.1,1006.0,334.5,1.8,3.7,321.6,0.06,22.9,25.8,"06:54:40",1
"17/08/19","07:10",0.0,25.1,87.3,1006.2,337.9,1.7,3.1,334.4,0.06,22.9,25.7,"07:09:20",1
"17/08/19","07:20",0.0,25.6,87.1,1006.2,333.6,1.7,3.2,358.9,0.09,23.3,25.9,"07:15:20",1
"17/08/19","07:30",0.0,26.1,84.2,1006.4,340.0,1.6,4.7,348.7,0.12,23.3,25.8,"07:20:40",1
"17/08/19","07:40",0.0,26.6,82.3,1006.2,333.9,1.2,2.6,337.7,0.12,23.4,26.0,"07:39:44",1
"17/08/19","07:50",0.0,26.3,84.3,1006.4,332.6,1.2,3.1,337.0,0.10,23.5,25.9,"07:46:40",1
"17/08/19","08:00",0.0,27.3,80.6,1006.0,335.7,1.0,2.8,351.5,0.19,23.7,26.1,"07:55:44",1
"17/08/19","08:10",0.0,27.5,78.4,1005.7,335.8,1.1,2.1,346.4,0.17,23.4,26.2,"08:09:04",1
"17/08/19","08:20",0.0,27.7,79.7,1005.7,315.4,0.8,2.6,350.0,0.19,23.9,26.1,"08:10:40",1
"17/08/19","08:30",0.0,27.8,78.2,1004.8,304.7,1.1,2.4,327.8,0.26,23.7,26.2,"08:23:52",1
"17/08/19","08:40",0.0,28.1,78.1,1005.0,329.7,1.2,2.4,358.1,0.27,24.0,26.3,"08:33:12",1
"17/08/19","08:50",0.0,28.4,75.1,1005.5,315.6,1.1,2.8,343.2,0.30,23.6,26.3,"08:42:16",1
"17/08/19","09:00",0.0,29.1,74.6,1005.7,340.8,1.1,3.2,349.8,0.32,24.2,26.5,"08:50:24",1
"17/08/19","09:10",0.0,29.3,73.3,1006.0,351.3,1.0,2.2,357.0,0.34,24.1,26.8,"09:08:24",1
"17/08/19","09:20",0.0,30.5,68.9,1006.0,67.1,0.6,1.8,355.9,0.36,24.2,26.8,"09:12:00",1
"17/08/19","09:30",0.0,29.7,68.6,1006.9,282.2,0.7,2.6,346.3,0.38,23.3,27.0,"09:27:04",1
"17/08/19","09:40",0.0,30.2,66.1,1006.9,46.9,0.6,1.6,77.5,0.40,23.2,27.2,"09:32:56",1
"17/08/19","09:50",0.0,30.8,67.9,1007.1,137.7,0.7,1.4,82.1,0.43,24.2,27.2,"09:43:36",1
"17/08/19","10:00",0.0,30.6,67.5,1007.4,355.2,1.1,2.9,341.2,0.45,23.9,27.7,"09:52:48",1
"17/08/19","10:10",0.0,30.0,66.6,1007.1,343.6,0.8,2.4,198.2,0.32,23.1,27.5,"10:00:02",1
"17/08/19","10:20",0.0,30.9,66.6,1007.4,201.5,0.8,2.6,224.2,0.48,24.0,27.7,"10:15:20",1
"17/08/19","10:30",0.0,31.5,64.5,1007.4,233.0,1.0,3.2,348.3,0.49,24.0,28.0,"10:29:52",1
"17/08/19","10:40",0.0,31.2,64.3,1006.9,358.4,1.2,3.3,342.5,0.45,23.7,27.9,"10:30:56",1
"17/08/19","10:50",0.0,32.0,61.4,1007.1,341.4,1.5,3.2,341.0,0.54,23.7,28.2,"10:41:12",1
"17/08/19","11:00",0.0,31.9,63.1,1006.7,219.4,1.5,3.6,201.7,0.57,24.0,28.4,"10:52:56",1
"17/08/19","11:10",0.0,30.6,62.0,1006.4,332.0,1.3,3.2,341.9,0.33,22.5,28.5,"11:01:04",1
"17/08/19","11:20",0.0,31.9,59.2,1006.4,311.6,1.1,3.2,344.2,0.51,23.0,28.9,"11:11:04",1
"17/08/19","11:30",0.0,32.3,59.7,1006.7,329.8,1.2,2.7,342.6,0.57,23.5,28.9,"11:20:56",1
"17/08/19","11:40",0.0,32.2,57.1,1006.7,269.7,1.1,2.6,356.0,0.59,22.7,29.2,"11:30:16",1
"17/08/19","11:50",0.0,32.4,58.9,1006.4,226.8,1.8,5.1,229.5,0.60,23.4,29.2,"11:46:08",1
"17/08/19","12:00",0.0,32.7,55.6,1006.2,329.8,1.3,3.5,333.5,0.58,22.7,29.6,"11:52:24",1
"17/08/19","12:10",0.0,33.2,56.8,1006.7,260.1,0.8,2.4,323.9,0.57,23.5,29.8,"12:09:04",1
"17/08/19","12:20",0.0,33.1,54.3,1006.2,258.8,0.8,2.8,221.3,0.58,22.7,29.9,"12:15:28",1
"17/08/19","12:30",0.0,33.4,56.1,1006.2,223.7,1.0,2.8,346.2,0.57,23.5,30.3,"12:20:24",1
"17/08/19","12:40",0.0,33.5,52.4,1006.0,292.4,1.1,2.2,190.3,0.58,22.5,30.4,"12:30:02",1
"17/08/19","12:50",0.0,33.5,51.1,1006.0,286.9,1.1,3.4,334.2,0.58,22.0,30.6,"12:41:04",1
"17/08/19","13:00",0.0,34.4,51.2,1006.4,247.0,0.6,1.6,358.9,0.58,22.9,30.7,"12:57:20",1
"17/08/19","13:10",0.0,33.8,55.8,1006.2,208.9,1.7,3.9,197.6,0.58,23.8,31.0,"13:04:24",1
"17/08/19","13:20",0.0,34.1,54.4,1006.2,231.6,1.1,2.6,228.3,0.59,23.6,31.0,"13:17:52",1
"17/08/19","13:30",0.0,33.9,53.3,1005.7,218.9,1.8,3.9,220.1,0.61,23.1,31.1,"13:20:56",1
"17/08/19","13:40",0.0,33.9,54.8,1006.2,223.7,1.5,3.3,230.3,0.57,23.6,31.5,"13:32:08",1
"17/08/19","13:50",0.0,34.2,52.3,1005.7,203.3,1.5,3.2,214.8,0.57,23.1,31.6,"13:46:08",1
"17/08/19","14:00",0.0,34.0,50.9,1006.0,192.0,1.7,3.9,216.0,0.56,22.4,31.5,"13:58:00",1
"17/08/19","14:10",0.0,34.2,49.7,1005.2,209.2,1.5,3.9,200.3,0.49,22.2,31.5,"14:00:24",1
"17/08/19","14:20",0.0,34.4,50.2,1005.5,219.7,1.7,5.1,220.7,0.51,22.6,31.7,"14:12:24",1
"17/08/19","14:30",0.0,34.2,47.2,1005.2,239.5,1.3,3.5,235.5,0.49,21.4,31.7,"14:24:16",1
"17/08/19","14:40",0.0,34.3,46.2,1005.2,259.7,1.3,3.9,229.1,0.47,21.1,31.5,"14:30:40",1
"17/08/19","14:50",0.0,34.2,45.5,1005.2,268.0,1.2,2.6,310.3,0.46,20.8,31.6,"14:46:32",1
"17/08/19","15:00",0.0,34.6,48.5,1005.0,266.3,1.2,2.9,222.2,0.45,22.2,31.5,"14:51:36",1
"17/08/19","15:10",0.0,34.7,50.5,1004.8,259.4,1.1,3.9,228.3,0.43,23.0,31.3,"15:03:20",1
"17/08/19","15:20",0.0,34.3,47.7,1004.5,242.3,1.2,2.8,224.6,0.41,21.6,31.4,"15:11:28",1
"17/08/19","15:30",0.0,34.7,48.6,1004.5,254.0,1.1,3.2,230.4,0.39,22.3,31.5,"15:28:56",1
"17/08/19","15:40",0.0,34.5,48.7,1004.5,217.8,2.0,5.2,210.9,0.37,22.2,31.6,"15:30:08",1
"17/08/19","15:50",0.0,34.7,53.1,1004.3,218.5,1.5,3.5,225.8,0.35,23.8,31.6,"15:41:28",1
"17/08/19","16:00",0.0,35.4,45.7,1004.3,242.6,0.8,2.2,197.2,0.34,21.9,31.5,"15:50:40",1
"17/08/19","16:10",0.0,35.3,47.0,1004.3,242.7,1.0,2.8,239.7,0.32,22.3,31.3,"16:07:52",1
"17/08/19","16:20",0.0,35.0,48.1,1004.1,295.0,1.1,2.4,351.8,0.30,22.4,31.6,"16:16:40",1
"17/08/19","16:30",0.0,35.0,53.7,1004.3,347.6,1.3,3.4,309.5,0.27,24.2,31.5,"16:21:44",1
"17/08/19","16:40",0.0,34.8,53.8,1004.1,358.7,1.3,2.7,342.5,0.24,24.1,31.4,"16:30:48",1
"17/08/19","16:50",0.0,34.2,54.4,1004.1,347.2,1.8,4.0,0.5,0.22,23.7,31.3,"16:49:44",1
"17/08/19","17:00",0.0,33.5,56.8,1003.8,350.1,2.1,4.3,350.1,0.19,23.8,31.5,"16:59:12",1
"17/08/19","17:10",0.0,33.1,58.3,1003.8,353.9,1.6,5.1,349.3,0.15,23.9,31.2,"17:03:04",1
"17/08/19","17:20",0.0,32.6,59.4,1003.4,2.3,2.0,4.8,343.8,0.13,23.7,31.1,"17:18:16",1
"17/08/19","17:30",0.0,32.2,61.3,1003.1,5.1,1.7,3.4,13.6,0.11,23.8,31.2,"17:21:28",1
"17/08/19","17:40",0.0,31.9,61.3,1003.1,2.6,1.6,5.1,346.3,0.09,23.6,30.9,"17:31:52",1
"17/08/19","17:50",0.0,31.4,63.1,1003.1,356.9,1.8,4.2,326.9,0.06,23.6,30.9,"17:42:00",1
"17/08/19","18:00",0.0,31.1,64.1,1003.1,353.9,1.7,3.4,341.9,0.05,23.6,30.8,"17:51:12",1
"17/08/19","18:10",0.0,30.7,64.8,1003.1,359.2,1.7,3.6,342.5,0.04,23.4,30.7,"18:01:28",1
"17/08/19","18:20",0.0,30.1,66.2,1003.4,348.7,1.5,4.0,350.2,0.02,23.1,30.5,"18:18:24",1
"17/08/19","18:30",0.0,29.5,67.4,1002.6,357.5,1.6,3.2,355.8,0.01,22.9,30.4,"18:20:02",1
"17/08/19","18:40",0.0,29.1,67.6,1002.4,356.1,2.0,4.5,351.1,0.00,22.5,30.2,"18:31:20",1
"17/08/19","18:50",0.0,28.9,69.2,1002.4,358.0,1.8,3.9,349.6,0.00,22.7,30.0,"18:47:20",1
"17/08/19","19:00",0.0,28.5,70.4,1003.1,344.9,1.5,3.3,348.6,0.00,22.6,30.0,"18:57:28",1
"17/08/19","19:10",0.0,28.2,71.7,1003.4,344.5,1.5,3.2,353.7,0.00,22.6,30.0,"19:03:44",1
"17/08/19","19:20",0.0,27.9,71.9,1003.4,344.3,2.2,4.1,350.9,0.00,22.4,29.7,"19:12:00",1
"17/08/19","19:30",0.0,27.8,72.4,1003.8,345.0,2.1,5.9,344.0,0.00,22.4,29.6,"19:22:48",1
"17/08/19","19:40",0.0,27.6,72.6,1004.1,346.5,1.8,4.3,328.5,0.00,22.3,29.3,"19:39:28",1
"17/08/19","19:50",0.0,27.5,72.8,1004.1,348.7,1.7,5.1,348.2,0.00,22.2,29.4,"19:47:36",1
"17/08/19","20:00",0.0,27.4,73.5,1004.1,358.7,1.6,2.8,0.6,0.00,22.3,29.1,"19:54:00",1
"17/08/19","20:10",0.0,27.2,73.9,1004.3,0.8,1.3,3.3,28.9,0.00,22.2,29.1,"20:02:40",1
"17/08/19","20:20",0.0,27.1,74.1,1004.8,7.7,1.5,3.2,9.9,0.00,22.1,28.9,"20:11:20",1
"17/08/19","20:30",0.0,27.1,74.1,1004.5,6.3,1.3,3.2,1.7,0.00,22.1,28.7,"20:20:40",1
"17/08/19","20:40",0.0,27.1,74.2,1005.0,8.4,1.7,3.6,9.1,0.00,22.2,28.7,"20:34:32",1
"17/08/19","20:50",0.0,27.1,74.0,1004.8,4.2,1.6,3.7,7.7,0.00,22.1,28.9,"20:42:32",1
"17/08/19","21:00",0.0,27.1,74.1,1005.0,11.2,1.5,3.4,8.8,0.00,22.1,28.4,"20:54:48",1
"17/08/19","21:10",0.0,27.1,73.9,1005.2,8.7,1.6,3.3,349.4,0.00,22.1,28.6,"21:06:56",1
"17/08/19","21:20",0.0,27.1,73.7,1005.0,20.4,1.2,3.4,74.2,0.00,22.0,28.5,"21:12:32",1
"17/08/19","21:30",0.0,26.9,74.9,1005.5,354.1,1.1,2.4,4.3,0.00,22.1,28.4,"21:21:04",1
"17/08/19","21:40",0.0,26.4,76.4,1005.5,337.2,1.1,2.0,338.1,0.00,22.0,28.2,"21:34:24",1
"17/08/19","21:50",0.0,26.1,77.9,1005.5,330.7,0.3,1.1,306.1,0.00,22.0,28.3,"21:40:24",1
"17/08/19","22:00",0.0,25.8,79.6,1005.5,312.4,0.6,1.1,338.3,0.00,22.0,28.1,"21:52:24",1
"17/08/19","22:10",0.0,25.5,81.0,1005.2,319.8,0.5,0.9,344.5,0.00,22.0,28.2,"22:00:56",1
"17/08/19","22:20",0.0,25.3,81.9,1005.2,331.8,0.6,1.6,343.4,0.00,22.0,27.9,"22:11:28",1
"17/08/19","22:30",0.0,25.1,82.7,1005.2,341.8,0.7,1.1,347.0,0.00,22.0,27.9,"22:20:48",1
"17/08/19","22:40",0.0,25.2,82.7,1005.2,349.0,1.0,2.4,356.0,0.00,22.1,27.9,"22:32:40",1
"17/08/19","22:50",0.0,25.1,82.8,1005.7,355.3,0.8,1.9,15.9,0.00,22.0,27.7,"22:42:00",1
"17/08/19","23:00",0.0,24.7,84.2,1006.2,321.7,1.1,2.0,317.8,0.00,21.9,27.8,"22:52:24",1
"17/08/19","23:10",0.0,24.5,84.9,1005.7,306.0,0.6,1.0,305.6,0.00,21.8,27.7,"23:09:44",1
"17/08/19","23:20",0.0,24.4,85.3,1006.0,298.6,0.8,1.6,332.7,0.00,21.8,27.7,"23:10:40",1
"17/08/19","23:30",0.0,24.5,85.6,1006.0,299.6,1.0,2.0,340.0,0.00,22.0,27.6,"23:29:44",1
"17/08/19","23:40",0.0,24.6,85.4,1006.0,329.8,1.6,3.9,344.6,0.00,22.0,27.5,"23:38:32",1
"17/08/19","23:50",0.0,24.9,84.4,1005.7,325.9,1.5,2.6,301.0,0.00,22.1,27.4,"23:41:12",1
"17/08/19","24:00",0.0,24.8,84.1,1005.7,331.8,1.3,2.2,337.4,0.00,22.0,27.4,"23:57:20",1
